Orbital Elements at Epoch 2459000.5 (2020-May-31.0) TDB
Reference: JPL 12 (heliocentric ecliptic J2000)
Element | Value | Uncertainty (1-sigma) | Units |
e | .1074058453075721 | 6.4166e-08 | |
a | 2.583124993956928 | 2.9251e-08 | au |
q | 2.305682270445867 | 1.6986e-07 | au |
i | 15.2881480541136 | 1.0676e-05 | deg |
node | 349.2388054451642 | 2.1184e-05 | deg |
peri | 106.8655859913841 | 5.8975e-05 | deg |
M | 135.9458743015767 | 5.261e-05 | deg |
tp | 2458427.862097042488 (2018-Nov-05.36209704) | 0.0002193 | TDB |
period | 1516.409719116523 4.15 | 2.5757e-05 7.052e-08 | d yr |
n | .2374028571972883 | 4.0325e-09 | deg/d |
Q | 2.860567717467989 | 3.2393e-08 | au |
|
| | Orbit Determination Parameters
Additional Information
|